Location: McCall
(45.0000°N, 116.0000°W)
Time: 19:55:15
(UTC-07:00)

Saudisat 1A - Visible Passes

Search period start: 28 February 2015 00:00
Search period end: 10 March 2015 01:00
Orbit: 586 x 615 km, 64.6° (Epoch: 28 February)

Date Brightness Start Highest point End Pass type
(mag) Time Alt. Az. Time Alt. Az. Time Alt. Az.
28 Feb 9.3 04:59:39 25° N 05:01:37 40° NE 05:05:51 10° ESE visible
28 Feb 9.0 06:37:13 10° WNW 06:41:03 28° WSW 06:44:49 10° S visible
01 Mar 11.2 03:34:45 11° ENE 03:34:45 11° ENE 03:35:13 10° ENE visible
01 Mar 8.3 05:11:33 38° NNW 05:13:08 67° NE 05:17:34 10° SE visible
01 Mar 9.7 06:49:27 10° WNW 06:52:13 16° WSW 06:54:48 10° SSW visible
01 Mar 9.7 20:55:23 10° SSW 20:57:09 24° SSW 20:57:09 24° SSW visible
02 Mar 10.9 03:46:53 14° ENE 03:46:53 14° ENE 03:47:53 10° E visible
02 Mar 7.9 05:23:42 56° WNW 05:24:30 71° WSW 05:28:57 10° SSE visible
02 Mar 9.4 19:29:04 10° SSE 19:32:00 18° ESE 19:33:11 17° E visible
02 Mar 9.0 21:06:51 10° SW 21:10:02 42° WSW 21:10:02 42° WSW visible
03 Mar 10.8 03:59:17 15° E 03:59:17 15° E 04:00:08 10° ESE visible
03 Mar 8.5 05:36:07 38° SW 05:36:07 38° SW 05:39:56 10° S visible
03 Mar 8.7 19:39:19 10° S 19:43:09 32° ESE 19:45:54 17° ENE visible
03 Mar 9.5 21:18:40 10° WSW 21:22:40 34° NW 21:22:44 34° NW visible
04 Mar 10.9 04:11:56 11° SE 04:11:56 11° SE 04:12:03 10° SE visible
04 Mar 9.7 05:48:48 17° SSW 05:48:48 17° SSW 05:50:24 10° SSW visible
04 Mar 8.0 19:50:08 10° SSW 19:54:24 58° ESE 19:58:22 12° NE visible
04 Mar 10.2 21:30:48 10° W 21:34:18 22° NW 21:35:11 21° NNW visible
05 Mar 8.1 20:01:23 10° SW 20:05:44 79° NW 20:10:10 10° NE visible
05 Mar 10.7 21:43:19 10° WNW 21:46:02 16° NNW 21:47:21 14° NNW visible
06 Mar 9.0 20:12:58 10° WSW 20:17:10 45° NW 20:21:27 10° NNE visible
06 Mar 11.0 21:56:27 10° NW 21:57:52 11° NNW 21:59:10 10° N visible
07 Mar 9.9 20:24:53 10° WSW 20:28:44 29° NW 20:32:35 10° NNE visible
08 Mar 10.5 21:37:09 10° W 21:40:23 19° NW 21:43:35 10° N visible
09 Mar 8.5 20:07:21 10° SW 20:11:41 63° NW 20:16:05 10° NNE visible
09 Mar 10.8 21:49:50 10° WNW 21:52:09 14° NNW 21:54:21 10° N visible
